Location: Newark
(13.5236°S, 71.9791°W)
Time: 09:19:46
(UTC+00:00)

ISS - Visible Passes

Search period start: 10 August 2020 00:00
Search period end: 20 August 2020 00:00
Orbit: 418 x 420 km, 51.6° (Epoch: 10 August)

Date Brightness Start Highest point End Pass type
(mag) Time Alt. Az. Time Alt. Az. Time Alt. Az.
13 Aug -2.0 00:09:17 10° NNW 00:10:56 24° N 00:10:56 24° N visible
13 Aug -1.1 10:03:51 10° S 10:06:13 18° SE 10:08:34 10° E visible
13 Aug -2.1 23:22:30 10° N 23:24:57 19° NE 23:26:07 16° E visible
15 Aug -2.3 00:10:52 10° WNW 00:13:56 32° SW 00:14:21 31° SW visible
15 Aug -3.8 10:05:31 20° SW 10:07:45 88° ESE 10:11:05 10° NE visible
15 Aug -3.7 23:22:58 10° NW 23:26:19 79° SW 23:29:31 11° SE visible
16 Aug -2.1 09:20:40 33° ESE 09:20:40 33° ESE 09:23:15 10° ENE visible
17 Aug -2.0 10:08:52 17° WNW 10:09:04 17° NW 10:11:20 10° NNW visible
17 Aug -1.0 23:25:37 10° W 23:27:48 16° SW 23:30:00 10° S visible
18 Aug -1.1 09:24:02 14° N 09:24:02 14° N 09:24:38 10° NNE visible
